Weather History for Bloomington, IN

Change the Weather History Date:

Friday, August 22, 2014

  Actual Average Record
Temperature  
Mean Temperature 81 °F 73 °F  
Max Temperature 88 °F 85 °F 100 °F (2007)
Min Temperature 74 °F 61 °F 50 °F (1997)
Degree Days  
Heating Degree Days 0 0  
Month to date heating degree days 1 0  
Since 1 June heating degree days 9 17  
Since 1 July heating degree days 6 2  
Cooling Degree Days 16 8  
Month to date cooling degree days 155 191  
Year to date cooling degree days 710 757  
Since 1 June cooling degree days 584 675  
Growing Degree Days 30 (Base 50)    
Moisture  
Dew Point 73 °F    
Average Humidity 79    
Maximum Humidity 94    
Minimum Humidity 63    
Precipitation  
Precipitation 0.00 in 0.12 in 0.01 in (2004)
Month to date precipitation 1.87 2.37  
Year to date precipitation 29.39 32.04  
Sea Level Pressure  
Sea Level Pressure 29.98 in    
Wind  
Wind Speed 5 mph (WSW)    
Max Wind Speed 12 mph    
Max Gust Speed 16 mph    
Visibility 9 miles    
Events Fog    
T = Trace of Precipitation, MM = Missing Value Source: NWS Daily Summary

Daily Weather History Graph

Daily Weather History Graph

Search for Another Location

Airport:

Trip Planner

Search our weather history database for the weather conditions in past years. The results will help you decide how hot, cold, wet, or windy it might be!

Date:

Astronomy

Aug. 22, 2014 Rise Set
Actual Time 7:06 AM EDT 8:31 PM EDT
Civil Twilight 6:37 AM EDT 8:59 PM EDT
Nautical Twilight 6:04 AM EDT 9:33 PM EDT
Astronomical Twilight 5:28 AM EDT 10:08 PM EDT
Moon 4:28 AM EDT (8/22) 6:39 PM EDT (8/22)
Length of Visible Light 14h 21m
Length of Day
13h 25m
Waning Crescent, 8% of the Moon is Illuminated
Aug 22
Waning Crescent
Aug 25
New
Sep 2
First Quarter
Sep 8
Full
Sep 15
Last Quarter

Hourly Weather History & Observations

Time (EDT) Temp. Heat Index Dew Point Humidity Pressure Visibility Wind Dir Wind Speed Gust Speed Precip Events Conditions
12:53 AM 77.0 °F - 73.0 °F 88% 30.01 in 10.0 mi SSW 4.6 mph - N/A   Clear
1:53 AM 77.0 °F - 72.0 °F 84% 29.99 in 10.0 mi SW 6.9 mph - N/A   Clear
2:53 AM 77.0 °F - 72.0 °F 84% 29.94 in 10.0 mi SW 8.1 mph - N/A   Clear
5:53 AM 75.9 °F - 72.0 °F 87% 29.94 in 10.0 mi WSW 10.4 mph - N/A   Clear
6:53 AM 75.9 °F - 72.0 °F 87% 29.96 in 10.0 mi West 10.4 mph - N/A   Clear
7:53 AM 75.9 °F - 72.0 °F 87% 29.96 in 10.0 mi WSW 9.2 mph - N/A   Clear
8:53 AM 77.0 °F - 72.0 °F 84% 29.99 in 10.0 mi WSW 6.9 mph - N/A   Scattered Clouds
9:53 AM 78.1 °F - 73.0 °F 84% 30.00 in 10.0 mi West 4.6 mph - N/A   Clear
11:37 AM 80.1 °F 84.2 °F 73.0 °F 79% 30.02 in 10.0 mi Calm Calm - N/A   Mostly Cloudy
11:46 AM 80.1 °F 84.2 °F 73.0 °F 79% 30.02 in 10.0 mi WNW 3.5 mph - N/A   Mostly Cloudy
11:53 AM 80.1 °F 84.2 °F 73.0 °F 79% 29.99 in 10.0 mi SW 3.5 mph - N/A   Mostly Cloudy
12:53 PM 82.0 °F 88.6 °F 75.0 °F 79% 29.98 in 10.0 mi SW 8.1 mph - N/A   Scattered Clouds
1:36 PM 82.9 °F 90.2 °F 75.0 °F 77% 30.01 in 10.0 mi SW 5.8 mph - N/A   Mostly Cloudy
1:53 PM 84.0 °F 91.9 °F 75.0 °F 74% 29.98 in 10.0 mi SW 5.8 mph - N/A   Mostly Cloudy
2:53 PM 82.9 °F 90.2 °F 75.0 °F 77% 29.97 in 10.0 mi West 4.6 mph - N/A   Overcast
3:50 PM 84.2 °F 90.9 °F 73.4 °F 70% 29.99 in 10.0 mi Variable 3.5 mph - N/A   Scattered Clouds
3:53 PM 84.9 °F 92.1 °F 73.9 °F 69% 29.96 in 10.0 mi West 4.6 mph - N/A   Partly Cloudy
5:04 PM 88.0 °F 96.5 °F 73.9 °F 63% 29.98 in 10.0 mi North 4.6 mph - N/A   Mostly Cloudy
5:26 PM 84.9 °F 93.3 °F 75.0 °F 72% 29.98 in 10.0 mi Calm Calm - N/A   Partly Cloudy
5:53 PM 86.0 °F 93.0 °F 73.0 °F 65% 29.96 in 10.0 mi West 4.6 mph - N/A   Clear
6:53 PM 84.0 °F 91.2 °F 73.9 °F 72% 29.95 in 10.0 mi West 4.6 mph - N/A   Clear
7:53 PM 82.0 °F 87.9 °F 73.9 °F 76% 29.95 in 10.0 mi Calm Calm - N/A   Clear
8:53 PM 78.1 °F - 73.9 °F 87% 29.96 in 10.0 mi Calm Calm - N/A   Overcast
9:53 PM 77.0 °F - 73.9 °F 90% 29.98 in 9.0 mi Calm Calm - N/A   Mostly Cloudy
10:53 PM 75.0 °F - 73.0 °F 94% 29.99 in 7.0 mi SW 3.5 mph - N/A   Scattered Clouds
11:50 PM 73.4 °F - 71.6 °F 94% 30.01 in 1.8 mi Calm Calm - N/A   Clear
11:53 PM 73.9 °F - 72.0 °F 93% 29.99 in 1.0 mi Calm Calm - N/A   Clear
11:56 PM 73.9 °F - 72.0 °F 93% 30.01 in 0.5 mi Calm Calm - N/A Fog Fog